Voltar ao catálogo

STARLINK-5780

AtivoComunicaçõesVLEO
NORAD 57150·PAYLOAD·🇺🇸 United States

Lançado Jun 23, 2023 de Cape Canaveral Space Force Station

Loading…

Próximas Passagens (próximas 24 horas)

TLE

AtualizadoSource: CelesTrak SupGP

Época: Sep 14, 2026, 21:15 UTC

1 57150C 23090BB  26257.88590278  .00003816  00000+0  13825-3 0  2577
2 57150  43.0032 281.8479 0001774 286.0761 178.2558 15.27570906    19

Acompanhe STARLINK-5780 em tempo real com AllMySat

Download on the App Store